AirNav   Air Wisconsin pilot careers
 
 1022 users online  

IL17 Center Point Heliport
Oak Brook, Illinois, USA

GOING TO OAK BROOK?


FAA INFORMATION EFFECTIVE 29 MARCH 2018

Location

FAA Identifier: IL17
Lat/Long: 41-50-59.0000N / 087-55-38.0000W
41-50.983333N / 087-55.633333W
41.8497222 / -87.9272222
(estimated)
Elevation: 660 ft. / 201 m (estimated)
Time zone: UTC -5 (UTC -6 during Standard Time)
Zip code: 60523

Heliport Operations

Heliport use: Private use. Permission required prior to landing
Activation date: 03/2005
Control tower: no
ARTCC: CHICAGO CENTER
FSS: KANKAKEE FLIGHT SERVICE STATION
Attendance: UNATNDD
Wind indicator: yes
Segmented circle: no

Heliport Communications

WX ASOS at ORD (8 nm N): PHONE 773-462-0118
WX ASOS at MDW (9 nm SE): PHONE 773-884-4424
WX AWOS-3 at 06C (11 nm NW): 128.275 ((847) 895-2887)
WX ASOS at DPA (15 nm W): PHONE 630-584-2728
WX ASOS at PWK (16 nm N): PHONE 847-465-0291
WX AWOS-3 at LOT (16 nm SW): 118.525 (815-588-4802)

Nearby radio navigation aids

VOR radial/distance  VOR name  Freq  Var
ORDr185/8.3CHICAGO O'HARE VOR/DME113.9002E
DPAr095/19.1DUPAGE VOR/DME108.4002E
OBKr179/22.3NORTHBROOK VOR/DME113.0002W
JOTr042/25.3JOLIET VOR/DME112.3002E
CGTr320/25.9CHICAGO HEIGHTS VORTAC114.2002E
EONr348/35.3PEOTONE VORTAC113.2002E

Heliport Services

Runway Information

Helipad H1

Dimensions: 56 x 56 ft. / 17 x 17 m
Surface: asphalt
Traffic pattern: leftleft

Heliport Ownership and Management from official FAA records

Ownership: Privately-owned
Owner: CENTER POINT PROPERTIES TRUST
1808 SWIFT DRIVE, STE. A
OAK BROOK, IL 60523-1501
Phone 630-586-8158
Manager: MICHELLE GRANA
1808 SWIFT DRIVE, STE. A
OAK BROOK, IL 60523-1501
Phone (630) 586-8155

Instrument Procedures

There are no published instrument procedures at IL17.

Some nearby airports with instrument procedures:

KORD - Chicago O'Hare International Airport (8 nm N)
KMDW - Chicago Midway International Airport (9 nm SE)
1C5 - Bolingbrook's Clow International Airport (13 nm SW)
KDPA - DuPage Airport (15 nm W)
KPWK - Chicago Executive Airport (16 nm N)
KLOT - Lewis University Airport (16 nm SW)
 
Loc | Ops | Rwys | IFR | FBO | Links
Com | Nav | Svcs | Stats | Notes

AirNav Hotels Sweepstakes
 
Area around IL17 (Center Point Heliport)
 
Road maps at: MapQuest Bing Google
 
Aerial photo
No photo
 
Sectional chart

 
Airport distance calculator
Flying to Center Point Heliport? Find the distance to fly.

From to IL17

Sunrise and sunset
Times for 20-Apr-2018
 Local
(UTC-5)
 Zulu
(UTC)
Morning civil twilight05:3510:35
Sunrise06:0511:05
Sunset19:3700:37
Evening civil twilight20:0601:06

Current date and time
Zulu (UTC)  20-Apr-2018 22:54:12
Local (UTC-5)  20-Apr-2018 17:54:12
 
METAR
KORD 
8nm N 
202151Z 09011KT 10SM SCT250 15/M09 A3044 RMK AO2 SLP310 T01501089
KMDW 
9nm SE 
202153Z 08010KT 10SM FEW002 SCT250 14/M12 A3046 RMK AO2 SLP318 FU FEW002 T01391117
K06C 
11nm NW 
202235Z AUTO 09009KT 10SM CLR 14/M08 A3042 RMK AO2 T01411082
4IS3 
15nm E 
SuperAWOS
202215Z AUTO VRB05KT 5SM HZ 10/M06 A3048
KDPA 
15nm W 
202152Z 00000KT 10SM CLR 16/M11 A3042 RMK AO2 SLP306 T01611106
KLOT 
16nm SW 
202235Z AUTO 09011KT 10SM CLR 15/M05 A3041 RMK AO2 T01481046
KPWK 
16nm N 
202152Z 07007KT 10SM CLR 14/M08 A3046 RMK AO2 SLP319 T01441083
TAF
KORD 
8nm N 
202113Z 2021/2124 09010KT P6SM SCT250 FM210200 07004KT P6SM BKN200 FM211000 07003KT P6SM SCT080 BKN100 FM212000 06008KT P6SM BKN080
KMDW 
9nm SE 
202113Z 2021/2124 09010KT P6SM SCT250 FM210200 07004KT P6SM BKN200 FM211000 07003KT P6SM SCT080 BKN100 FM212000 06008KT P6SM BKN080
KDPA 
15nm W 
202113Z 2021/2118 VRB04KT P6SM SCT250 FM202300 09005KT P6SM BKN200 FM211000 07003KT P6SM SCT080 BKN100
NOTAMs
Click for the latest NOTAMs
NOTAMs are issued by the DoD/FAA and will open in a separate window not controlled by AirNav.

 

 
 

Would you like to see your business listed on this page?

 If your business provides an interesting product or service to pilots, flight crews, aircraft, or users of the Center Point Heliport, you should consider listing it here.  To start the listing process, click on the button below
 
Add a business
 

Other Pages about Center Point Heliport

Update a link
 
Copyright © AirNav, LLC. All rights reserved. Privacy Policy  Contact